Regional Weather Roundup
Issued by NWS Newport/Morehead, NC

Current Version | Previous Version | Text Only | Print | Product List | Glossary On
Versions: 1 2 3 4 5 6 7 8 9 10 11 12 13 14 15 16 17 18 19 20 21 22 23 24 25 26 27 28 29 30 31 32 33 34 35 36 37 38 39 40 41 42 43 44 45 46 47 48 49 50
000 ASUS42 KMHX 211110 RWRMHX WEATHER ROUNDUP FOR EASTERN NORTH CAROLINA NATIONAL WEATHER SERVICE NEWPORT/MOREHEAD CITY NC 700 AM EDT THU AUG 21 2014 NOTE: "FAIR" INDICATES FEW OR NO CLOUDS BELOW 12,000 FEET WITH NO SIGNIFICANT WEATHER AND/OR OBSTRUCTIONS TO VISIBILITY NCZ015>017-031-032-045>047-102-103-211200- NORTH COAST CITY SKY/WX TMP DP RH WIND PRES REMARKS EDENTON PTCLDY 73 72 96 CALM 30.03R FOG ELIZABETH CITY PTCLDY 74 73 97 CALM 30.02R FOG KITTY HAWK PTSUNNY 76 74 94 CALM 30.02R MANTEO MOCLDY 77 75 94 S6 30.03R $$ NCZ045>047-081-094-103-104-211200- CENTRAL COAST CITY SKY/WX TMP DP RH WIND PRES REMARKS FRISCO PTCLDY 76 75 97 SW3 30.04R SWANQUARTER N/A 77 N/A N/A CALM 30.00R $$ NCZ095-097-098-100-101-211200- SOUTHERN COAST CITY SKY/WX TMP DP RH WIND PRES REMARKS BEAUFORT PTCLDY 79 77 94 S3 30.03R CEDAR ISLAND N/A 77 N/A N/A S1 30.06S JACKSONVILLE PTCLDY 74 73 97 CALM 30.03R FOG NEWPORT NOT AVBL PINEY ISLAND FOG 79 79 100 CALM 30.04R VSB 3/4 WILMINGTON FOG 80 79 96 CALM 30.02R VSB<1/4 $$ NCZ011>013-027>030-043-044-078>080-089-090>093-098-211200- COASTAL PLAIN CITY SKY/WX TMP DP RH WIND PRES REMARKS AHOSKIE CLOUDY 71 70 98 CALM 30.03R VSB 1/2 CLINTON CLEAR 72 72 100 CALM 30.03R FOG ELIZABETHTOWN CLEAR 75 74 96 CALM 30.02R GOLDSBORO CLEAR 72 72 99 CALM 30.02R GREENVILLE PTCLDY 73 73 100 CALM 30.05R FOG HAVELOCK FOG 75 74 96 CALM 30.04R VSB 1 KENANSVILLE MOCLDY 71 70 96 CALM 30.04R FOG KINSTON CLEAR 73 72 94 CALM 30.04R NEW BERN FOG 76 74 93 CALM 30.04R VSB 1/4 RICHLANDS MOCLDY 72 70 94 CALM 30.03R ROANOKE RAPIDS NOT AVBL ROCKY MOUNT FOG 72 71 97 CALM 30.04R VSB 1 WASHINGTON PTCLDY 73 72 96 CALM 30.03R WHITEVILLE CLEAR 74 72 95 CALM 30.02R $$ AMZ130-135-150-152-154-156-158-170-250-252-270-ANZ085-086-088-633-658-670-211200- MARINE OBSERVATIONS STATION/POSITION TIME TEMP WIND PRES WAVE SWELL AIR SEA DIR/SP/G HT/PER HT/PER (UTC) (F) (DEG/KT/KT) (MB) (FT/S) (FT/S) CHESAPEAKE LIGHT 1000 76 170/ 10/ 10 1016.8 BUOY 44014 1100 77 78 180/ 2/ 4 1016.6 2/ 7 2/ 7 DUCK 1100 77 78 160/ 6/ 7 1015.7 2E DUCK 1100 N/A 2/ 6 OREGON INLET 1100 76 81 120/ 3/ 4 1016.6 BUOY 44095 1100 79 N/A 3/ 6 20E OREGON INLET NOT AVBL HATTERAS CG 1100 79 81 210/ 3/ 4 1017.2 DIAMOND BUOY 1100 80 180/ 4/ 6 1017.0 3/ 8 3/ 8 CAPE LOOKOUT 1000 79 200/ 5/ 6 1015.9 BEAUFORT LAB 1100 80 82 220/ 2/ 4 1016.5 30 SE NEW RIVER 1000 81 82 220/ 8/ 8 1015.6 5 SE WRIGHTSVILL 1100 79 82 220/ 6/ 6 N/A BUOY 41002 0953 81 81 250/ 12/ 14 1018.5 3/ 5 2/ 6 BUOY 41004 1100 83 84 220/ 8/ 10 1016.1 3/ 5 2/ 5 $$

USA.gov is the U.S. government's official web portal to all federal, state and local government web resources and services.